Regional Weather Roundup
Issued by NWS Little Rock, AR

Home | Current Version | Previous Version | Graphics & Text | Print | Product List | Glossary On
Versions: 1 2 3 4 5 6 7 8 9 10 11 12 13 14 15 16 17 18 19 20 21 22 23 24 25 26 27 28 29 30 31 32 33 34 35 36 37 38 39 40 41 42 43 44 45 46 47 48 49 50
371
ASUS44 KLZK 231405
RWRLZK

WEATHER ROUNDUP FOR ARKANSAS
NATIONAL WEATHER SERVICE LITTLE ROCK AR
800 AM CST THU FEB 23 2017

NOTE: "FAIR" INDICATES FEW OR NO CLOUDS BELOW 12,000 FEET WITH NO
SIGNIFICANT WEATHER AND/OR OBSTRUCTIONS TO VISIBILITY.

ARZ001-003-010-029-231500-
NORTHWEST ARKANSAS

CITY           SKY/WX    TMP DP  RH WIND       PRES   REMARKS
FAYETTEVILLE   CLOUDY    60  55  83 S10       29.66S
FORT SMITH     CLOUDY    55  53  93 E10       29.68S FOG
HARRISON       MOSUNNY   54  54 100 SE8       29.71R
BENTONVILLE    CLOUDY    57  52  82 SE12      29.65F
ROGERS         CLOUDY    55  53  93 SE10      29.66F
SILOAM SPGS    PTSUNNY   57  52  82 SE9       29.64S
HIGHFILL       MOSUNNY   57  54  89 SE12      29.64F
SPRINGDALE     SUNNY     57  55  94 SE5       29.68S
$$

ARZ004-005-016-231500-
NORTH CENTRAL ARKANSAS

CITY           SKY/WX    TMP DP  RH WIND       PRES   REMARKS
BATESVILLE     SUNNY     55  54  94 SE6       29.77S
FLIPPIN        MOSUNNY   52  46  82 CALM      29.71R
MTN HOME       SUNNY     54  54 100 S6        29.72R
$$

ARZ040-041-231500-
WEST CENTRAL ARKANSAS

CITY           SKY/WX    TMP DP  RH WIND       PRES   REMARKS
MENA           MOSUNNY   54  54 100 CALM      29.74S
MOUNT IDA      SUNNY     52  51  97 CALM      29.71S FOG
$$

ARZ009-017-025-026-028-231500-
NORTHEAST ARKANSAS

CITY           SKY/WX    TMP DP  RH WIND       PRES   REMARKS
CORNING        FOG       54  54 100 SE6       29.79R VSB 1/2
JONESBORO      FOG       55  55 100 S6        29.79R VSB 1/4
NEWPORT        LGT RAIN  53  53 100 S8        29.78  VSB 1/4
WALNUT RIDGE   CLOUDY    54  50  87 S5        29.78R VSB<1/4
BLYTHEVILLE    MOSUNNY   57  56  96 S6        29.81R
NW BLYTHEVILLE MOSUNNY   59  55  88 S6        29.80
$$

ARZ022-023-033-042-044-231500-
CENTRAL ARKANSAS

CITY           SKY/WX    TMP DP  RH WIND       PRES   REMARKS
LITTLE ROCK    FOG       50  50 100 CALM      29.78R VSB 1/8
N LITTLE ROCK    N/A     53  52  97 S3        29.79R
JACKSONVILLE   FOG       52  52 100 CALM      29.77R VSB<1/4
SEARCY         FOG       52  52 100 CALM      29.80R VSB<1/4
HOT SPRINGS    SUNNY     57  55  93 SE5       29.77R
RUSSELLVILLE   CLOUDY    54  54 100 CALM      29.74R
CLINTON        FOG       54  54 100 CALM      29.77S VSB<1/4
$$

ARZ036-231500-
EAST ARKANSAS

CITY           SKY/WX    TMP DP  RH WIND       PRES   REMARKS
WEST MEMPHIS   PTSUNNY   56  56 100 S8        29.79S
$$

ARZ050-053-066-070-073-231500-
SOUTHWEST ARKANSAS

CITY           SKY/WX    TMP DP  RH WIND       PRES   REMARKS
ARKADELPHIA    PTSUNNY   50  50 100 CALM      29.78R
CAMDEN         SUNNY     54  52  94 SE5       29.79R
TEXARKANA      MOSUNNY   57  54  89 S9        29.75R
EL DORADO      SUNNY     56  54  93 S5        29.79R
DE QUEEN       SUNNY     52  52 100 NE5       29.72S
$$

ARZ056-057-069-231500-
SOUTHEAST ARKANSAS

CITY           SKY/WX    TMP DP  RH WIND       PRES   REMARKS
PINE BLUFF     SUNNY     53  53 100 SE5       29.79S
STUTTGART      SUNNY     57  48  72 S10       29.80R
MONTICELLO     SUNNY     56  54  93 S5        29.81R

$$






USA.gov is the U.S. government's official web portal to all federal, state and local government web resources and services.